Time,TemperatureF,DewpointF,PressureIn,WindDirection,WindDirectionDegrees,WindSpeedMPH,WindSpeedGustMPH,Humidity,HourlyPrecipIn,Conditions,Clouds,dailyrainin,SoftwareType,DateUTC
2013-02-08 00:01:00,12.3,-2.0,30.47,WNW,282,0.0,-999.0,54,-99.99,,,0.00,weatherlink.com 1.10,2013-02-08 05:01:00,
2013-02-08 00:16:00,12.3,-2.0,30.47,WNW,282,0.0,-999.0,54,-99.99,,,0.00,weatherlink.com 1.10,2013-02-08 05:16:00,
2013-02-08 00:31:00,12.2,-2.0,30.46,WNW,282,0.0,-999.0,54,-99.99,,,0.00,weatherlink.com 1.10,2013-02-08 05:31:00,
2013-02-08 00:46:00,12.2,-1.0,30.46,WNW,283,0.0,-999.0,56,-99.99,,,0.00,weatherlink.com 1.10,2013-02-08 05:46:00,
2013-02-08 01:02:00,12.3,-1.0,30.46,WNW,283,0.0,-999.0,55,-99.99,,,0.00,weatherlink.com 1.10,2013-02-08 06:02:00,
2013-02-08 01:16:00,12.6,-1.0,30.46,WNW,283,0.0,-999.0,55,-99.99,,,0.00,weatherlink.com 1.10,2013-02-08 06:16:00,
2013-02-08 01:31:00,12.7,-1.0,30.46,WNW,282,0.0,-999.0,55,-99.99,,,0.00,weatherlink.com 1.10,2013-02-08 06:31:00,
2013-02-08 01:47:00,12.8,0.0,30.45,WNW,282,0.0,-999.0,56,-99.99,,,0.00,weatherlink.com 1.10,2013-02-08 06:47:00,
2013-02-08 02:02:00,12.6,0.0,30.45,WNW,282,0.0,-999.0,57,-99.99,,,0.00,weatherlink.com 1.10,2013-02-08 07:02:00,
2013-02-08 02:17:00,12.6,1.0,30.45,WNW,282,0.0,-999.0,59,-99.99,,,0.00,weatherlink.com 1.10,2013-02-08 07:17:00,
2013-02-08 02:32:00,12.7,1.0,30.44,WNW,282,0.0,-999.0,59,-99.99,,,0.00,weatherlink.com 1.10,2013-02-08 07:32:00,
2013-02-08 02:47:00,12.7,2.0,30.43,WNW,283,0.0,-999.0,61,-99.99,,,0.00,weatherlink.com 1.10,2013-02-08 07:47:00,
2013-02-08 03:02:00,12.8,2.0,30.42,WNW,282,0.0,-999.0,62,-99.99,,,0.00,weatherlink.com 1.10,2013-02-08 08:02:00,
2013-02-08 03:17:00,12.7,2.0,30.41,WNW,282,0.0,-999.0,61,-99.99,,,0.00,weatherlink.com 1.10,2013-02-08 08:17:00,
2013-02-08 03:32:00,12.9,3.0,30.40,WNW,282,0.0,-999.0,64,-99.99,,,0.00,weatherlink.com 1.10,2013-02-08 08:32:00,
2013-02-08 03:47:00,13.2,3.0,30.39,WNW,282,0.0,-999.0,65,-99.99,,,0.00,weatherlink.com 1.10,2013-02-08 08:47:00,
2013-02-08 04:02:00,13.5,4.0,30.39,WNW,282,0.0,-999.0,67,-99.99,,,0.00,weatherlink.com 1.10,2013-02-08 09:02:00,
2013-02-08 04:17:00,13.4,5.0,30.38,WNW,282,0.0,-999.0,70,-99.99,,,0.00,weatherlink.com 1.10,2013-02-08 09:17:00,
2013-02-08 04:33:00,13.1,6.0,30.37,WNW,283,0.0,-999.0,74,-99.99,,,0.00,weatherlink.com 1.10,2013-02-08 09:33:00,
2013-02-08 04:47:00,12.5,7.0,30.38,WNW,282,0.0,-999.0,78,-99.99,,,0.00,weatherlink.com 1.10,2013-02-08 09:47:00,
2013-02-08 05:02:00,11.7,7.0,30.38,WNW,283,0.0,-999.0,82,-99.99,,,0.00,weatherlink.com 1.10,2013-02-08 10:02:00,
2013-02-08 05:17:00,11.5,8.0,30.37,WNW,282,1.0,-999.0,85,-99.99,,,0.00,weatherlink.com 1.10,2013-02-08 10:17:00,
2013-02-08 05:33:00,11.8,9.0,30.36,WNW,282,0.0,-999.0,87,-99.99,,,0.00,weatherlink.com 1.10,2013-02-08 10:33:00,
2013-02-08 05:48:00,11.9,9.0,30.36,WNW,282,0.0,-999.0,87,-99.99,,,0.00,weatherlink.com 1.10,2013-02-08 10:48:00,
2013-02-08 06:03:00,11.7,9.0,30.36,WNW,282,0.0,-999.0,87,-99.99,,,0.00,weatherlink.com 1.10,2013-02-08 11:03:00,
2013-02-08 06:18:00,11.5,8.0,30.35,WNW,282,0.0,-999.0,87,-99.99,,,0.00,weatherlink.com 1.10,2013-02-08 11:18:00,
2013-02-08 06:33:00,11.5,8.0,30.35,WNW,282,0.0,-999.0,87,-99.99,,,0.00,weatherlink.com 1.10,2013-02-08 11:33:00,
2013-02-08 06:48:00,11.4,8.0,30.34,WNW,282,0.0,-999.0,87,-99.99,,,0.00,weatherlink.com 1.10,2013-02-08 11:48:00,
2013-02-08 07:03:00,11.3,9.0,30.34,WNW,282,0.0,-999.0,88,-99.99,,,0.00,weatherlink.com 1.10,2013-02-08 12:03:00,
2013-02-08 07:18:00,11.5,9.0,30.35,WNW,282,0.0,-999.0,89,-99.99,,,0.00,weatherlink.com 1.10,2013-02-08 12:18:00,
2013-02-08 07:33:00,11.7,9.0,30.35,WNW,282,0.0,-999.0,89,-99.99,,,0.00,weatherlink.com 1.10,2013-02-08 12:33:00,
2013-02-08 07:48:00,12.0,9.0,30.35,WNW,282,0.0,-999.0,89,-99.99,,,0.00,weatherlink.com 1.10,2013-02-08 12:48:00,
2013-02-08 08:03:00,12.2,10.0,30.34,WNW,282,0.0,-999.0,89,-99.99,,,0.00,weatherlink.com 1.10,2013-02-08 13:03:00,
2013-02-08 08:18:00,12.5,10.0,30.34,WNW,282,0.0,-999.0,89,-99.99,,,0.00,weatherlink.com 1.10,2013-02-08 13:18:00,
2013-02-08 08:33:00,12.9,10.0,30.33,WNW,282,0.0,-999.0,89,-99.99,,,0.00,weatherlink.com 1.10,2013-02-08 13:33:00,
2013-02-08 08:49:00,13.6,11.0,30.33,WNW,282,0.0,-999.0,90,-99.99,,,0.00,weatherlink.com 1.10,2013-02-08 13:49:00,
2013-02-08 09:04:00,13.9,11.0,30.32,WNW,282,0.0,-999.0,89,-99.99,,,0.00,weatherlink.com 1.10,2013-02-08 14:04:00,
2013-02-08 09:19:00,14.3,12.0,30.31,WNW,282,0.0,-999.0,90,-99.99,,,0.00,weatherlink.com 1.10,2013-02-08 14:19:00,
2013-02-08 09:34:00,14.8,12.0,30.30,WNW,282,0.0,-999.0,89,-99.99,,,0.00,weatherlink.com 1.10,2013-02-08 14:34:00,
2013-02-08 09:49:00,15.4,13.0,30.30,WNW,282,0.0,-999.0,89,-99.99,,,0.00,weatherlink.com 1.10,2013-02-08 14:49:00,
2013-02-08 10:04:00,16.0,13.0,30.30,WNW,282,0.0,-999.0,89,-99.99,,,0.00,weatherlink.com 1.10,2013-02-08 15:04:00,
2013-02-08 10:19:00,16.3,14.0,30.29,WNW,282,0.0,-999.0,89,-99.99,,,0.00,weatherlink.com 1.10,2013-02-08 15:19:00,
2013-02-08 10:34:00,16.8,14.0,30.28,WNW,282,0.0,-999.0,90,-99.99,,,0.00,weatherlink.com 1.10,2013-02-08 15:34:00,
2013-02-08 10:49:00,17.5,15.0,30.28,WNW,282,0.0,-999.0,90,-99.99,,,0.00,weatherlink.com 1.10,2013-02-08 15:49:00,
2013-02-08 11:05:00,17.9,16.0,30.27,WNW,282,0.0,-999.0,90,-99.99,,,0.00,weatherlink.com 1.10,2013-02-08 16:05:00,
2013-02-08 11:19:00,18.3,16.0,30.27,WNW,282,0.0,-999.0,90,-99.99,,,0.00,weatherlink.com 1.10,2013-02-08 16:19:00,
2013-02-08 11:34:00,18.6,16.0,30.26,WNW,282,0.0,-999.0,90,-99.99,,,0.00,weatherlink.com 1.10,2013-02-08 16:34:00,
2013-02-08 11:50:00,18.8,16.0,30.25,WNW,283,0.0,-999.0,90,-99.99,,,0.00,weatherlink.com 1.10,2013-02-08 16:50:00,
2013-02-08 12:05:00,19.1,17.0,30.24,WNW,282,0.0,-999.0,91,-99.99,,,0.00,weatherlink.com 1.10,2013-02-08 17:05:00,
2013-02-08 12:20:00,19.6,17.0,30.23,WNW,282,0.0,-999.0,91,-99.99,,,0.00,weatherlink.com 1.10,2013-02-08 17:20:00,
2013-02-08 12:35:00,20.1,18.0,30.22,WNW,282,0.0,-999.0,91,-99.99,,,0.00,weatherlink.com 1.10,2013-02-08 17:35:00,
2013-02-08 12:50:00,20.4,18.0,30.20,WNW,282,0.0,-999.0,91,-99.99,,,0.00,weatherlink.com 1.10,2013-02-08 17:50:00,
2013-02-08 13:05:00,20.8,19.0,30.19,WNW,282,0.0,-999.0,92,-99.99,,,0.00,weatherlink.com 1.10,2013-02-08 18:05:00,
2013-02-08 13:20:00,21.6,20.0,30.18,WNW,293,0.0,-999.0,93,-99.99,,,0.00,weatherlink.com 1.10,2013-02-08 18:20:00,
2013-02-08 13:35:00,22.4,21.0,30.17,WNW,292,0.0,-999.0,93,-99.99,,,0.00,weatherlink.com 1.10,2013-02-08 18:35:00,
2013-02-08 13:50:00,22.9,21.0,30.16,WNW,293,0.0,-999.0,92,-99.99,,,0.00,weatherlink.com 1.10,2013-02-08 18:50:00,
2013-02-08 14:05:00,23.1,21.0,30.15,WNW,300,0.0,-999.0,92,-99.99,,,0.00,weatherlink.com 1.10,2013-02-08 19:05:00,
2013-02-08 14:20:00,23.3,21.0,30.13,WNW,300,0.0,-999.0,91,-99.99,,,0.00,weatherlink.com 1.10,2013-02-08 19:20:00,
2013-02-08 14:35:00,23.5,21.0,30.12,WNW,300,0.0,-999.0,91,-99.99,,,0.00,weatherlink.com 1.10,2013-02-08 19:35:00,
2013-02-08 14:50:00,23.5,21.0,30.11,WNW,286,0.0,-999.0,91,-99.99,,,0.00,weatherlink.com 1.10,2013-02-08 19:50:00,
2013-02-08 15:05:00,23.6,21.0,30.11,WNW,286,0.0,-999.0,90,-99.99,,,0.00,weatherlink.com 1.10,2013-02-08 20:05:00,
2013-02-08 15:20:00,23.5,21.0,30.09,West,277,0.0,-999.0,90,-99.99,,,0.00,weatherlink.com 1.10,2013-02-08 20:20:00,
2013-02-08 15:36:00,23.4,21.0,30.08,West,277,0.0,-999.0,91,-99.99,,,0.00,weatherlink.com 1.10,2013-02-08 20:36:00,
2013-02-08 15:51:00,23.1,21.0,30.08,WNW,284,0.0,-999.0,90,-99.99,,,0.00,weatherlink.com 1.10,2013-02-08 20:51:00,
2013-02-08 16:06:00,22.7,21.0,30.08,WNW,284,0.0,-999.0,91,-99.99,,,0.00,weatherlink.com 1.10,2013-02-08 21:06:00,
2013-02-08 16:21:00,22.2,20.0,30.07,WNW,284,0.0,-999.0,91,-99.99,,,0.00,weatherlink.com 1.10,2013-02-08 21:21:00,
2013-02-08 16:36:00,21.6,19.0,30.06,WNW,293,0.0,-999.0,91,-99.99,,,0.00,weatherlink.com 1.10,2013-02-08 21:36:00,
2013-02-08 16:51:00,21.2,19.0,30.05,NW,313,0.0,-999.0,92,-99.99,,,0.00,weatherlink.com 1.10,2013-02-08 21:51:00,
2013-02-08 17:06:00,20.8,19.0,30.05,WNW,291,1.0,-999.0,92,-99.99,,,0.00,weatherlink.com 1.10,2013-02-08 22:06:00,
2013-02-08 17:21:00,20.5,19.0,30.05,NW,317,0.0,-999.0,92,-99.99,,,0.00,weatherlink.com 1.10,2013-02-08 22:21:00,
2013-02-08 17:36:00,20.2,18.0,30.05,West,271,1.0,-999.0,92,-99.99,,,0.00,weatherlink.com 1.10,2013-02-08 22:36:00,
2013-02-08 17:51:00,20.0,18.0,30.04,NW,311,2.0,-999.0,92,-99.99,,,0.00,weatherlink.com 1.10,2013-02-08 22:51:00,
2013-02-08 18:06:00,19.8,18.0,30.04,WNW,288,0.0,-999.0,92,-99.99,,,0.00,weatherlink.com 1.10,2013-02-08 23:06:00,
2013-02-08 18:21:00,19.6,17.0,30.03,WNW,293,0.0,-999.0,91,-99.99,,,0.00,weatherlink.com 1.10,2013-02-08 23:21:00,
2013-02-08 18:36:00,19.2,17.0,30.04,NW,308,1.0,-999.0,91,-99.99,,,0.00,weatherlink.com 1.10,2013-02-08 23:36:00,
2013-02-08 18:51:00,18.9,17.0,30.04,North,360,2.0,-999.0,91,-99.99,,,0.00,weatherlink.com 1.10,2013-02-08 23:51:00,
2013-02-08 19:07:00,18.2,16.0,30.03,WNW,294,1.0,-999.0,90,-99.99,,,0.00,weatherlink.com 1.10,2013-02-09 00:07:00,
2013-02-08 19:22:00,18.0,16.0,30.03,WNW,297,2.0,-999.0,90,-99.99,,,0.00,weatherlink.com 1.10,2013-02-09 00:22:00,
2013-02-08 19:37:00,17.5,15.0,30.02,NW,310,2.0,-999.0,89,-99.99,,,0.00,weatherlink.com 1.10,2013-02-09 00:37:00,
2013-02-08 19:52:00,16.9,14.0,30.02,WNW,297,1.0,-999.0,88,-99.99,,,0.00,weatherlink.com 1.10,2013-02-09 00:52:00,
2013-02-08 20:07:00,16.4,14.0,30.02,NW,323,1.0,-999.0,88,-99.99,,,0.00,weatherlink.com 1.10,2013-02-09 01:07:00,
2013-02-08 20:22:00,15.9,13.0,29.99,NNW,329,2.0,-999.0,88,-99.99,,,0.00,weatherlink.com 1.10,2013-02-09 01:22:00,
2013-02-08 20:37:00,15.4,13.0,29.99,NNW,346,0.0,-999.0,89,-99.99,,,0.00,weatherlink.com 1.10,2013-02-09 01:37:00,
2013-02-08 20:52:00,15.0,12.0,29.98,North,360,1.0,-999.0,89,-99.99,,,0.00,weatherlink.com 1.10,2013-02-09 01:52:00,
2013-02-08 21:07:00,14.7,12.0,29.97,NNW,333,2.0,-999.0,89,-99.99,,,0.00,weatherlink.com 1.10,2013-02-09 02:07:00,
2013-02-08 21:22:00,14.8,12.0,29.97,NNW,344,2.0,-999.0,88,-99.99,,,0.00,weatherlink.com 1.10,2013-02-09 02:22:00,
2013-02-08 21:37:00,14.9,12.0,29.96,NW,312,1.0,-999.0,88,-99.99,,,0.00,weatherlink.com 1.10,2013-02-09 02:37:00,
2013-02-08 21:52:00,15.2,13.0,29.95,NW,306,0.0,-999.0,89,-99.99,,,0.00,weatherlink.com 1.10,2013-02-09 02:52:00,
2013-02-08 22:07:00,15.3,13.0,29.95,NW,310,1.0,-999.0,89,-99.99,,,0.00,weatherlink.com 1.10,2013-02-09 03:07:00,
2013-02-08 22:23:00,15.2,12.0,29.93,ENE,57,0.0,-999.0,88,-99.99,,,0.00,weatherlink.com 1.10,2013-02-09 03:23:00,
2013-02-08 22:38:00,15.1,12.0,29.93,WSW,256,6.0,-999.0,88,-99.99,,,0.00,weatherlink.com 1.10,2013-02-09 03:38:00,
2013-02-08 22:53:00,15.2,13.0,29.92,NNW,347,3.0,-999.0,89,-99.99,,,0.00,weatherlink.com 1.10,2013-02-09 03:53:00,
2013-02-08 23:08:00,15.0,12.0,29.92,NW,323,4.0,-999.0,88,-99.99,,,0.00,weatherlink.com 1.10,2013-02-09 04:08:00,
2013-02-08 23:23:00,14.8,12.0,29.91,NW,315,0.0,-999.0,89,-99.99,,,0.00,weatherlink.com 1.10,2013-02-09 04:23:00,
2013-02-08 23:38:00,14.6,12.0,29.90,NW,315,0.0,-999.0,89,-99.99,,,0.00,weatherlink.com 1.10,2013-02-09 04:38:00,
2013-02-08 23:53:00,14.6,12.0,29.89,NNW,343,0.0,-999.0,90,-99.99,,,0.00,weatherlink.com 1.10,2013-02-09 04:53:00,